Flag for Germany Weather past 2 weeks in Landsberg am Lech, Bavaria, Germany

Now
61 °F

Light rain. Broken clouds.


Feels Like: 61 °F
Forecast: 48 / 66 °F
Wind: 13 mph from Southwest

Location: Landsberg

Current Time: Jul 29, 2015 at 3:49:26 PM

Latest Report: Jul 29, 2015 at 2:20 PM


Visibility: N/A

Pressure: 29.86 "Hg (27.84 "Hg at 593m altitude)

Humidity: 88%

Dew point: 57 °F

Location of Landsberg am LechLocation

Historic Weather in Landsberg am Lech — Graph

°F

Landsberg am Lech temperature yesterday

Maximum temperature yesterday: 68 °F (at 5:20 PM)
Minimum temperature yesterday: 59 °F (at 11:20 PM)
Average temperature yesterday: 64 °F

Past Weeks' High & Low Weather Summary

 TemperatureHumidityPressure
High91 °F (Jul 17, 3:20 PM)94% (Jul 19, 2:20 AM)30.18 "Hg (Jul 19, 2:20 AM)
Low50 °F (Jul 26, 6:20 AM)18% (Jul 17, 3:20 PM)29.77 "Hg (Jul 24, 7:20 PM)
Average70 °F62%30.00 "Hg
* Reported Jul 14 2:20 PM — Jul 29 2:20 PM, Landsberg am Lech, Weather by CustomWeather, © 2015

Note: Actual official high and low records may vary slightly from our data, if they occured in-between our weather recording intervals... More about our weather records

Advertising

Landsberg am Lech weather history for previous 24 hours

 ConditionsComfort  
Time TempWeatherWind HumidityBarometerVisibility
2:20 PM
Wed, Jul 29
61 °FLight rain. Broken clouds.13 mph88%29.86 "HgN/A
1:20 PM59 °FLight rain. Partly sunny.10 mph88%29.86 "HgN/A
12:20 PM59 °FDrizzle. Broken clouds.13 mph82%29.86 "HgN/A
11:20 AM66 °FSprinkles. Scattered clouds.10 mph56%29.83 "HgN/A
10:20 AM63 °FScattered clouds.9 mph68%29.86 "HgN/A
9:20 AM61 °FScattered clouds.8 mph72%29.89 "HgN/A
8:20 AM57 °FBroken clouds.5 mph82%29.89 "HgN/A
7:20 AM55 °FPartly sunny.6 mph88%29.92 "HgN/A
6:20 AM54 °FPassing clouds.3 mph94%29.92 "HgN/A
5:20 AM54 °FMostly cloudy.3 mph94%29.92 "HgN/A
4:20 AM52 °FLight rain. Mostly cloudy.5 mph94%29.95 "HgN/A
3:20 AM54 °FLight rain. Mostly cloudy.7 mph88%29.95 "HgN/A
2:20 AM55 °FMostly cloudy.5 mph88%29.95 "HgN/A
1:20 AM55 °FRain. Mostly cloudy.6 mph82%29.95 "HgN/A
12:20 AM55 °FLight rain. Mostly cloudy.3 mph82%29.95 "HgN/A
11:20 PM
Tue, Jul 28
59 °FLight rain. Mostly cloudy.10 mph77%29.92 "HgN/A
10:20 PM63 °FLight rain. Mostly cloudy.8 mph64%29.89 "HgN/A
9:20 PM63 °FPartly sunny.8 mph64%29.89 "HgN/A
8:20 PM64 °FPartly sunny.10 mph56%29.86 "HgN/A
7:20 PM66 °FPartly sunny.14 mph52%29.86 "HgN/A
6:20 PM66 °FPartly sunny.16 mph52%29.86 "HgN/A
5:20 PM68 °FPartly sunny.16 mph49%29.86 "HgN/A
4:20 PM66 °FBroken clouds.18 mph52%29.86 "HgN/A
3:20 PM66 °FPartly sunny.17 mph52%29.86 "HgN/A
Weather by CustomWeather, © 2015

See weather overviewHow to use our weather pages